Time,TemperatureF,DewpointF,PressureIn,WindDirection,WindDirectionDegrees,WindSpeedMPH,WindSpeedGustMPH,Humidity,HourlyPrecipIn,Conditions,Clouds,dailyrainin,SolarRadiationWatts/m^2,SoftwareType,DateUTC
2013-04-20 00:12:00,52.4,-10.0,29.97,ENE,76,5.0,8.0,7,0.00,,,0.00,0,weatherlink.com 1.10,2013-04-20 06:12:00,
2013-04-20 00:27:00,52.4,-10.0,29.97,ENE,76,5.0,7.0,7,0.00,,,0.00,0,weatherlink.com 1.10,2013-04-20 06:27:00,
2013-04-20 00:42:00,52.8,-10.0,29.98,ENE,76,4.0,7.0,7,0.00,,,0.00,0,weatherlink.com 1.10,2013-04-20 06:42:00,
2013-04-20 00:57:00,53.3,-10.0,29.98,ENE,76,5.0,5.0,7,0.00,,,0.00,0,weatherlink.com 1.10,2013-04-20 06:57:00,
2013-04-20 01:12:00,52.7,-7.0,29.97,ENE,76,2.0,5.0,8,0.00,,,0.00,0,weatherlink.com 1.10,2013-04-20 07:12:00,
2013-04-20 01:27:00,52.2,-8.0,29.96,ENE,76,4.0,5.0,8,0.00,,,0.00,0,weatherlink.com 1.10,2013-04-20 07:27:00,
2013-04-20 01:42:00,52.5,-8.0,29.96,ENE,76,4.0,7.0,8,0.00,,,0.00,0,weatherlink.com 1.10,2013-04-20 07:42:00,
2013-04-20 01:57:00,52.0,-8.0,29.96,ENE,76,3.0,5.0,8,0.00,,,0.00,0,weatherlink.com 1.10,2013-04-20 07:57:00,
2013-04-20 02:12:00,51.7,-8.0,29.95,ENE,73,4.0,7.0,8,0.00,,,0.00,0,weatherlink.com 1.10,2013-04-20 08:12:00,
2013-04-20 02:27:00,51.6,-8.0,29.95,ENE,72,3.0,5.0,8,0.00,,,0.00,0,weatherlink.com 1.10,2013-04-20 08:27:00,
2013-04-20 02:42:00,51.4,-6.0,29.95,ENE,67,5.0,7.0,9,0.00,,,0.00,0,weatherlink.com 1.10,2013-04-20 08:42:00,
2013-04-20 02:58:00,51.3,-6.0,29.94,ENE,61,3.0,8.0,9,0.00,,,0.00,0,weatherlink.com 1.10,2013-04-20 08:58:00,
2013-04-20 03:13:00,51.3,-6.0,29.94,ENE,59,5.0,7.0,9,0.00,,,0.00,0,weatherlink.com 1.10,2013-04-20 09:13:00,
2013-04-20 03:28:00,51.2,-4.0,29.94,ENE,59,3.0,7.0,10,0.00,,,0.00,0,weatherlink.com 1.10,2013-04-20 09:28:00,
2013-04-20 03:43:00,51.8,-3.0,29.94,ENE,57,5.0,8.0,10,0.00,,,0.00,0,weatherlink.com 1.10,2013-04-20 09:43:00,
2013-04-20 03:58:00,51.5,-4.0,29.94,ENE,57,3.0,8.0,10,0.00,,,0.00,0,weatherlink.com 1.10,2013-04-20 09:58:00,
2013-04-20 04:13:00,51.0,-2.0,29.93,NE,54,3.0,5.0,11,0.00,,,0.00,0,weatherlink.com 1.10,2013-04-20 10:13:00,
2013-04-20 04:28:00,50.6,-2.0,29.93,NE,54,2.0,4.0,11,0.00,,,0.00,0,weatherlink.com 1.10,2013-04-20 10:28:00,
2013-04-20 04:43:00,50.5,-3.0,29.92,NE,54,3.0,5.0,11,0.00,,,0.00,0,weatherlink.com 1.10,2013-04-20 10:43:00,
2013-04-20 04:58:00,50.3,-3.0,29.92,NE,54,2.0,5.0,11,0.00,,,0.00,0,weatherlink.com 1.10,2013-04-20 10:58:00,
2013-04-20 05:13:00,50.3,-3.0,29.92,NE,54,3.0,5.0,11,0.00,,,0.00,0,weatherlink.com 1.10,2013-04-20 11:13:00,
2013-04-20 05:28:00,49.7,-1.0,29.92,NE,54,1.0,4.0,12,0.00,,,0.00,0,weatherlink.com 1.10,2013-04-20 11:28:00,
2013-04-20 05:43:00,48.2,-3.0,29.92,NE,53,6.0,8.0,12,0.00,,,0.00,0,weatherlink.com 1.10,2013-04-20 11:43:00,
2013-04-20 05:58:00,48.0,-3.0,29.93,NE,53,3.0,6.0,12,0.00,,,0.00,0,weatherlink.com 1.10,2013-04-20 11:58:00,
2013-04-20 06:13:00,48.1,-1.0,29.93,NE,53,4.0,7.0,13,0.00,,,0.00,0,weatherlink.com 1.10,2013-04-20 12:13:00,
2013-04-20 06:29:00,48.1,-3.0,29.93,NE,50,6.0,7.0,12,0.00,,,0.00,0,weatherlink.com 1.10,2013-04-20 12:29:00,
2013-04-20 06:44:00,48.1,-3.0,29.93,NE,50,4.0,7.0,12,0.00,,,0.00,11,weatherlink.com 1.10,2013-04-20 12:44:00,
2013-04-20 06:59:00,48.2,-1.0,29.93,NE,50,5.0,7.0,13,0.00,,,0.00,19,weatherlink.com 1.10,2013-04-20 12:59:00,
2013-04-20 07:14:00,49.1,0.0,29.93,NE,50,4.0,5.0,13,0.00,,,0.00,56,weatherlink.com 1.10,2013-04-20 13:14:00,
2013-04-20 07:29:00,52.0,1.0,29.93,NE,50,0.0,5.0,12,0.00,,,0.00,128,weatherlink.com 1.10,2013-04-20 13:29:00,
2013-04-20 07:44:00,56.0,0.0,29.93,NE,50,0.0,2.0,10,0.00,,,0.00,193,weatherlink.com 1.10,2013-04-20 13:44:00,
2013-04-20 07:59:00,59.2,0.0,29.93,NE,50,0.0,4.0,9,0.00,,,0.00,248,weatherlink.com 1.10,2013-04-20 13:59:00,
2013-04-20 08:14:00,60.2,-2.0,29.93,NE,50,0.0,3.0,8,0.00,,,0.00,304,weatherlink.com 1.10,2013-04-20 14:14:00,
2013-04-20 08:29:00,60.2,-2.0,29.93,NE,50,1.0,3.0,8,0.00,,,0.00,360,weatherlink.com 1.10,2013-04-20 14:29:00,
2013-04-20 08:44:00,60.9,-1.0,29.93,ESE,108,4.0,7.0,8,0.00,,,0.00,415,weatherlink.com 1.10,2013-04-20 14:44:00,
2013-04-20 08:59:00,61.6,-1.0,29.93,ESE,108,1.0,5.0,8,0.00,,,0.00,469,weatherlink.com 1.10,2013-04-20 14:59:00,
2013-04-20 09:14:00,61.6,-1.0,29.93,ESE,123,0.0,7.0,8,0.00,,,0.00,519,weatherlink.com 1.10,2013-04-20 15:14:00,
2013-04-20 09:29:00,61.8,-1.0,29.93,SSE,150,1.0,7.0,8,0.00,,,0.00,571,weatherlink.com 1.10,2013-04-20 15:29:00,
2013-04-20 09:44:00,62.7,0.0,29.92,SSE,150,4.0,5.0,8,0.00,,,0.00,622,weatherlink.com 1.10,2013-04-20 15:44:00,
2013-04-20 10:00:00,63.0,0.0,29.92,SSE,155,0.0,7.0,8,0.00,,,0.00,666,weatherlink.com 1.10,2013-04-20 16:00:00,
2013-04-20 10:15:00,63.9,-2.0,29.91,SSE,161,5.0,9.0,7,0.00,,,0.00,710,weatherlink.com 1.10,2013-04-20 16:15:00,
2013-04-20 10:30:00,64.2,-2.0,29.91,South,171,4.0,9.0,7,0.00,,,0.00,752,weatherlink.com 1.10,2013-04-20 16:30:00,
2013-04-20 10:45:00,64.7,-4.0,29.91,SSE,165,4.0,8.0,6,0.00,,,0.00,791,weatherlink.com 1.10,2013-04-20 16:45:00,
2013-04-20 11:00:00,65.8,-4.0,29.90,South,174,4.0,7.0,6,0.00,,,0.00,824,weatherlink.com 1.10,2013-04-20 17:00:00,
2013-04-20 11:15:00,66.1,-3.0,29.90,South,183,6.0,11.0,6,0.00,,,0.00,860,weatherlink.com 1.10,2013-04-20 17:15:00,
2013-04-20 11:30:00,66.9,1.0,29.90,South,191,3.0,9.0,7,0.00,,,0.00,884,weatherlink.com 1.10,2013-04-20 17:30:00,
2013-04-20 11:45:00,67.5,-2.0,29.88,South,185,5.0,11.0,6,0.00,,,0.00,907,weatherlink.com 1.10,2013-04-20 17:45:00,
2013-04-20 12:00:00,68.1,-6.0,29.88,South,180,5.0,7.0,5,0.00,,,0.00,930,weatherlink.com 1.10,2013-04-20 18:00:00,
2013-04-20 12:15:00,68.8,-5.0,29.87,South,170,3.0,13.0,5,0.00,,,0.00,942,weatherlink.com 1.10,2013-04-20 18:15:00,
2013-04-20 12:30:00,68.7,-5.0,29.86,WSW,238,1.0,15.0,5,0.00,,,0.00,954,weatherlink.com 1.10,2013-04-20 18:30:00,
2013-04-20 12:45:00,70.6,-4.0,29.85,SW,219,15.0,17.0,5,0.00,,,0.00,965,weatherlink.com 1.10,2013-04-20 18:45:00,
2013-04-20 13:00:00,71.4,-3.0,29.84,SSW,211,8.0,18.0,5,0.00,,,0.00,972,weatherlink.com 1.10,2013-04-20 19:00:00,
2013-04-20 13:16:00,73.1,-7.0,29.84,SSW,208,8.0,15.0,4,0.00,,,0.00,970,weatherlink.com 1.10,2013-04-20 19:16:00,
2013-04-20 13:31:00,72.5,-7.0,29.83,WSW,238,8.0,18.0,4,0.00,,,0.00,965,weatherlink.com 1.10,2013-04-20 19:31:00,
2013-04-20 13:46:00,72.2,-8.0,29.82,SW,227,4.0,20.0,4,0.00,,,0.00,956,weatherlink.com 1.10,2013-04-20 19:46:00,
2013-04-20 14:01:00,73.6,-7.0,29.82,SW,215,10.0,21.0,4,0.00,,,0.00,947,weatherlink.com 1.10,2013-04-20 20:01:00,
2013-04-20 14:16:00,73.6,-2.0,29.81,WSW,253,8.0,18.0,5,0.00,,,0.00,930,weatherlink.com 1.10,2013-04-20 20:16:00,
2013-04-20 14:31:00,73.8,-2.0,29.81,SW,225,13.0,21.0,5,0.00,,,0.00,904,weatherlink.com 1.10,2013-04-20 20:31:00,
2013-04-20 14:46:00,74.6,-6.0,29.80,SW,215,3.0,15.0,4,0.00,,,0.00,881,weatherlink.com 1.10,2013-04-20 20:46:00,
2013-04-20 15:01:00,75.3,-5.0,29.77,SW,221,6.0,25.0,4,0.00,,,0.00,849,weatherlink.com 1.10,2013-04-20 21:01:00,
2013-04-20 15:16:00,76.2,-5.0,29.76,SSW,207,9.0,21.0,4,0.00,,,0.00,821,weatherlink.com 1.10,2013-04-20 21:16:00,
2013-04-20 15:31:00,76.2,-11.0,29.76,WSW,253,7.0,17.0,3,0.00,,,0.00,782,weatherlink.com 1.10,2013-04-20 21:31:00,
2013-04-20 15:46:00,76.2,-5.0,29.75,SSW,203,11.0,16.0,4,0.00,,,0.00,740,weatherlink.com 1.10,2013-04-20 21:46:00,
2013-04-20 16:01:00,76.9,-4.0,29.74,SW,236,7.0,22.0,4,0.00,,,0.00,693,weatherlink.com 1.10,2013-04-20 22:01:00,
2013-04-20 16:16:00,77.3,1.0,29.72,South,187,17.0,22.0,5,0.00,,,0.00,640,weatherlink.com 1.10,2013-04-20 22:16:00,
2013-04-20 16:31:00,78.0,2.0,29.72,SW,225,14.0,20.0,5,0.00,,,0.00,596,weatherlink.com 1.10,2013-04-20 22:31:00,
2013-04-20 16:47:00,77.5,1.0,29.71,South,180,23.0,30.0,5,0.00,,,0.00,547,weatherlink.com 1.10,2013-04-20 22:47:00,
2013-04-20 17:02:00,77.3,1.0,29.71,SW,218,18.0,31.0,5,0.00,,,0.00,478,weatherlink.com 1.10,2013-04-20 23:02:00,
2013-04-20 17:17:00,77.0,1.0,29.71,SW,229,11.0,25.0,5,0.00,,,0.00,446,weatherlink.com 1.10,2013-04-20 23:17:00,
2013-04-20 17:32:00,76.9,1.0,29.71,SSW,212,18.0,21.0,5,0.00,,,0.00,388,weatherlink.com 1.10,2013-04-20 23:32:00,
2013-04-20 17:47:00,76.4,4.0,29.71,SW,229,15.0,27.0,6,0.00,,,0.00,338,weatherlink.com 1.10,2013-04-20 23:47:00,
2013-04-20 18:02:00,76.3,4.0,29.71,SW,214,11.0,22.0,6,0.00,,,0.00,260,weatherlink.com 1.10,2013-04-21 00:02:00,
2013-04-20 18:17:00,75.8,4.0,29.71,SW,225,24.0,26.0,6,0.00,,,0.00,207,weatherlink.com 1.10,2013-04-21 00:17:00,
2013-04-20 18:32:00,75.3,3.0,29.71,WSW,240,11.0,24.0,6,0.00,,,0.00,169,weatherlink.com 1.10,2013-04-21 00:32:00,
2013-04-20 18:47:00,74.6,6.0,29.72,SW,234,11.0,26.0,7,0.00,,,0.00,105,weatherlink.com 1.10,2013-04-21 00:47:00,
2013-04-20 19:02:00,73.8,6.0,29.72,SW,227,15.0,25.0,7,0.00,,,0.00,58,weatherlink.com 1.10,2013-04-21 01:02:00,
2013-04-20 19:17:00,73.2,5.0,29.73,SW,216,17.0,22.0,7,0.00,,,0.00,28,weatherlink.com 1.10,2013-04-21 01:17:00,
2013-04-20 19:32:00,72.4,5.0,29.73,SW,228,15.0,27.0,7,0.00,,,0.00,11,weatherlink.com 1.10,2013-04-21 01:32:00,
2013-04-20 19:47:00,71.8,7.0,29.74,SW,224,12.0,22.0,8,0.00,,,0.00,0,weatherlink.com 1.10,2013-04-21 01:47:00,
2013-04-20 20:02:00,71.2,9.0,29.75,SW,225,5.0,18.0,9,0.00,,,0.00,0,weatherlink.com 1.10,2013-04-21 02:02:00,
2013-04-20 20:18:00,70.6,9.0,29.76,SW,232,6.0,16.0,9,0.00,,,0.00,0,weatherlink.com 1.10,2013-04-21 02:18:00,
2013-04-20 20:33:00,70.0,8.0,29.77,SW,226,9.0,14.0,9,0.00,,,0.00,0,weatherlink.com 1.10,2013-04-21 02:33:00,
2013-04-20 20:48:00,69.5,10.0,29.79,WSW,243,7.0,14.0,10,0.00,,,0.00,0,weatherlink.com 1.10,2013-04-21 02:48:00,
2013-04-20 21:03:00,68.5,10.0,29.80,WNW,283,6.0,12.0,10,0.00,,,0.00,0,weatherlink.com 1.10,2013-04-21 03:03:00,
2013-04-20 21:18:00,67.3,9.0,29.81,WSW,248,10.0,14.0,10,0.00,,,0.00,0,weatherlink.com 1.10,2013-04-21 03:18:00,
2013-04-20 21:33:00,68.0,9.0,29.81,WSW,247,10.0,16.0,10,0.00,,,0.00,0,weatherlink.com 1.10,2013-04-21 03:33:00,
2013-04-20 21:48:00,67.5,9.0,29.82,WNW,288,5.0,10.0,10,0.00,,,0.00,0,weatherlink.com 1.10,2013-04-21 03:48:00,
2013-04-20 22:03:00,66.8,8.0,29.83,NW,309,5.0,12.0,10,0.00,,,0.00,0,weatherlink.com 1.10,2013-04-21 04:03:00,
2013-04-20 22:18:00,65.6,9.0,29.83,NW,325,6.0,9.0,11,0.00,,,0.00,0,weatherlink.com 1.10,2013-04-21 04:18:00,
2013-04-20 22:33:00,64.7,9.0,29.84,NNW,332,7.0,8.0,11,0.00,,,0.00,0,weatherlink.com 1.10,2013-04-21 04:33:00,
2013-04-20 22:48:00,65.7,10.0,29.84,NW,323,7.0,10.0,11,0.00,,,0.00,0,weatherlink.com 1.10,2013-04-21 04:48:00,
2013-04-20 23:03:00,65.2,9.0,29.84,NNW,334,7.0,8.0,11,0.00,,,0.00,0,weatherlink.com 1.10,2013-04-21 05:03:00,
2013-04-20 23:18:00,64.5,9.0,29.84,NNW,333,4.0,10.0,11,0.00,,,0.00,0,weatherlink.com 1.10,2013-04-21 05:18:00,
2013-04-20 23:34:00,64.1,8.0,29.84,NNW,345,8.0,11.0,11,0.00,,,0.00,0,weatherlink.com 1.10,2013-04-21 05:34:00,
2013-04-20 23:49:00,63.1,8.0,29.84,North,350,8.0,10.0,11,0.00,,,0.00,0,weatherlink.com 1.10,2013-04-21 05:49:00,